When you browse on this site, cookies collect data to enhance your experience and personalize the content and advertising you see.
Visit our Privacy Policy to learn more. By continuing to use the site, you agree to this use of cookies and data.

Hourly Weather Podmorochnoe

Today, 8 July, Wednesday

Time Temperature Precipitation Wind Pressure Humidity
00:00 +11°C° 0 mm 3 mps 747 mmHg 93%
01:00 +11°C° 0 mm 3 mps 747 mmHg 93%
02:00 +11°C° 0 mm 3 mps 747 mmHg 92%
03:00 +10°C° 0 mm 3 mps 747 mmHg 93%
04:00 +10°C° 0 mm 3 mps 747 mmHg 93%
05:00 +9°C° 0 mm 2 mps 747 mmHg 94%
06:00 +11°C° 0 mm 3 mps 748 mmHg 88%
07:00 +12°C° 0 mm 3 mps 748 mmHg 82%
08:00 +14°C° 0 mm 4 mps 748 mmHg 76%
09:00 +15°C° 0 mm 4 mps 748 mmHg 71%
10:00 +17°C° 0 mm 4 mps 748 mmHg 67%
11:00 +19°C° 0 mm 4 mps 748 mmHg 63%
12:00 +19°C° 0 mm 4 mps 748 mmHg 61%
13:00 +20°C° 0 mm 4 mps 748 mmHg 59%
14:00 +20°C° 0 mm 4 mps 748 mmHg 58%
15:00 +20°C° 0.1 mm 4 mps 748 mmHg 60%
16:00 +20°C° 0.1 mm 4 mps 748 mmHg 62%
17:00 +19°C° 0.1 mm 4 mps 748 mmHg 65%
18:00 +18°C° 0.1 mm 4 mps 748 mmHg 71%
19:00 +17°C° 0.1 mm 3 mps 748 mmHg 78%
20:00 +14°C° 0.1 mm 3 mps 748 mmHg 85%
21:00 +14°C° 0 mm 3 mps 748 mmHg 88%
22:00 +13°C° 0 mm 3 mps 748 mmHg 91%
23:00 +12°C° 0 mm 3 mps 748 mmHg 94%

Tomorrow, 9 July, Thursday

Time Temperature Precipitation Wind Pressure Humidity
00:00 +12°C° 0.2 mm 3 mps 749 mmHg 94%
01:00 +12°C° 0.2 mm 3 mps 749 mmHg 94%
02:00 +12°C° 0.2 mm 4 mps 749 mmHg 94%
03:00 +12°C° 0.1 mm 3 mps 749 mmHg 95%
04:00 +12°C° 0.1 mm 3 mps 749 mmHg 96%
05:00 +11°C° 0.1 mm 3 mps 749 mmHg 97%
06:00 +12°C° 0 mm 3 mps 749 mmHg 92%
07:00 +14°C° 0 mm 2 mps 750 mmHg 88%
08:00 +15°C° 0 mm 2 mps 750 mmHg 84%
09:00 +17°C° 0.1 mm 3 mps 750 mmHg 79%
10:00 +18°C° 0.1 mm 3 mps 750 mmHg 74%
11:00 +19°C° 0.1 mm 4 mps 751 mmHg 69%
12:00 +20°C° 0.2 mm 4 mps 750 mmHg 67%
13:00 +20°C° 0.2 mm 4 mps 750 mmHg 66%
14:00 +21°C° 0.2 mm 4 mps 750 mmHg 64%
15:00 +20°C° 0.2 mm 4 mps 750 mmHg 65%
16:00 +20°C° 0.2 mm 3 mps 750 mmHg 66%
17:00 +20°C° 0.2 mm 3 mps 750 mmHg 66%
18:00 +19°C° 0.1 mm 3 mps 750 mmHg 72%
19:00 +18°C° 0.1 mm 2 mps 750 mmHg 78%
20:00 +16°C° 0.1 mm 2 mps 751 mmHg 84%
21:00 +15°C° 0 mm 2 mps 751 mmHg 87%
22:00 +14°C° 0 mm 2 mps 751 mmHg 89%
23:00 +14°C° 0 mm 1 mps 751 mmHg 92%

Day after tomorrow, 10 July, Friday

Time Temperature Precipitation Wind Pressure Humidity
00:00 +13°C° 0 mm 1 mps 751 mmHg 92%
01:00 +13°C° 0 mm 1 mps 751 mmHg 93%
02:00 +12°C° 0 mm 1 mps 752 mmHg 94%
03:00 +12°C° 0 mm 2 mps 752 mmHg 94%
04:00 +13°C° 0 mm 2 mps 751 mmHg 95%
05:00 +13°C° 0 mm 2 mps 751 mmHg 95%
06:00 +14°C° 0 mm 2 mps 751 mmHg 91%
07:00 +16°C° 0 mm 2 mps 751 mmHg 86%
08:00 +18°C° 0 mm 2 mps 751 mmHg 81%
09:00 +18°C° 0 mm 2 mps 751 mmHg 81%
10:00 +18°C° 0 mm 2 mps 751 mmHg 82%
11:00 +18°C° 0 mm 2 mps 751 mmHg 82%
12:00 +19°C° 0 mm 2 mps 751 mmHg 80%
13:00 +20°C° 0 mm 2 mps 751 mmHg 77%
14:00 +21°C° 0 mm 3 mps 751 mmHg 74%
15:00 +21°C° 0 mm 3 mps 750 mmHg 72%
16:00 +22°C° 0 mm 3 mps 750 mmHg 69%
17:00 +23°C° 0 mm 4 mps 750 mmHg 66%
18:00 +22°C° 0 mm 4 mps 750 mmHg 72%
19:00 +21°C° 0 mm 4 mps 750 mmHg 78%
20:00 +20°C° 0 mm 3 mps 749 mmHg 83%
21:00 +20°C° 0 mm 4 mps 749 mmHg 84%
22:00 +20°C° 0 mm 4 mps 749 mmHg 85%
23:00 +19°C° 0 mm 5 mps 749 mmHg 86%

11 July, Saturday

Time Temperature Precipitation Wind Pressure Humidity
00:00 +19°C° 0 mm 5 mps 749 mmHg 86%
01:00 +19°C° 0 mm 5 mps 749 mmHg 86%
02:00 +19°C° 0 mm 5 mps 749 mmHg 86%
03:00 +17°C° 0.1 mm 5 mps 749 mmHg 87%
04:00 +18°C° 0.1 mm 4 mps 749 mmHg 87%
05:00 +17°C° 0.1 mm 4 mps 749 mmHg 88%
06:00 +19°C° 0 mm 4 mps 749 mmHg 85%
07:00 +20°C° 0 mm 4 mps 749 mmHg 82%
08:00 +21°C° 0 mm 5 mps 749 mmHg 78%
09:00 +23°C° 0 mm 4 mps 749 mmHg 75%
10:00 +25°C° 0 mm 4 mps 750 mmHg 72%
11:00 +27°C° 0 mm 4 mps 750 mmHg 69%
12:00 +27°C° 0.2 mm 3 mps 750 mmHg 68%
13:00 +28°C° 0.2 mm 3 mps 750 mmHg 68%
14:00 +28°C° 0.2 mm 3 mps 749 mmHg 67%
15:00 +26°C° 0.9 mm 4 mps 749 mmHg 73%
16:00 +25°C° 0.9 mm 4 mps 749 mmHg 78%
17:00 +22°C° 0.9 mm 5 mps 749 mmHg 83%
18:00 +20°C° 0.7 mm 4 mps 750 mmHg 85%
19:00 +18°C° 0.7 mm 4 mps 750 mmHg 87%
20:00 +15°C° 0.7 mm 4 mps 750 mmHg 88%
21:00 +14°C° 0.3 mm 3 mps 750 mmHg 89%
22:00 +14°C° 0.3 mm 3 mps 750 mmHg 90%
23:00 +13°C° 0.3 mm 3 mps 750 mmHg 91%

12 July, Sunday

Time Temperature Precipitation Wind Pressure Humidity
00:00 +13°C° 0.2 mm 3 mps 750 mmHg 91%
01:00 +13°C° 0.2 mm 3 mps 750 mmHg 90%
02:00 +13°C° 0.2 mm 4 mps 750 mmHg 90%
03:00 +13°C° 0.1 mm 4 mps 750 mmHg 90%
04:00 +13°C° 0.1 mm 4 mps 750 mmHg 91%
05:00 +13°C° 0.1 mm 4 mps 750 mmHg 91%
06:00 +13°C° 0.8 mm 4 mps 750 mmHg 92%
07:00 +13°C° 0.8 mm 5 mps 750 mmHg 94%
08:00 +12°C° 0.8 mm 5 mps 750 mmHg 95%
09:00 +12°C° 1 mm 5 mps 751 mmHg 95%
10:00 +12°C° 1 mm 5 mps 751 mmHg 95%
11:00 +12°C° 1 mm 5 mps 751 mmHg 96%
12:00 +12°C° 0.7 mm 5 mps 751 mmHg 95%
13:00 +12°C° 0.7 mm 5 mps 751 mmHg 95%
14:00 +12°C° 0.7 mm 5 mps 751 mmHg 95%
15:00 +10°C° 0.8 mm 5 mps 751 mmHg 95%
16:00 +10°C° 0.8 mm 5 mps 751 mmHg 95%
17:00 +10°C° 0.8 mm 5 mps 751 mmHg 95%
18:00 +11°C° 0.4 mm 4 mps 751 mmHg 95%
19:00 +11°C° 0.4 mm 4 mps 751 mmHg 96%
20:00 +11°C° 0.4 mm 4 mps 751 mmHg 96%
21:00 +11°C° 0.8 mm 4 mps 751 mmHg 96%
22:00 +11°C° 0.8 mm 4 mps 752 mmHg 96%
23:00 +11°C° 0.8 mm 4 mps 752 mmHg 96%

13 July, Monday

Time Temperature Precipitation Wind Pressure Humidity
00:00 +11°C° 0.2 mm 4 mps 751 mmHg 96%
01:00 +11°C° 0.2 mm 4 mps 751 mmHg 96%
02:00 +11°C° 0.2 mm 4 mps 751 mmHg 95%
03:00 +11°C° 0.2 mm 4 mps 751 mmHg 96%
04:00 +11°C° 0.2 mm 4 mps 751 mmHg 96%
05:00 +11°C° 0.2 mm 4 mps 750 mmHg 96%
06:00 +11°C° 0.1 mm 4 mps 750 mmHg 96%
07:00 +12°C° 0.1 mm 5 mps 750 mmHg 95%
08:00 +12°C° 0.1 mm 5 mps 750 mmHg 95%
09:00 +12°C° 0.6 mm 5 mps 750 mmHg 95%
10:00 +12°C° 0.6 mm 5 mps 750 mmHg 95%
11:00 +12°C° 0.6 mm 5 mps 750 mmHg 95%
12:00 +12°C° 1.1 mm 5 mps 750 mmHg 95%
13:00 +13°C° 1.1 mm 5 mps 750 mmHg 95%
14:00 +13°C° 1.1 mm 5 mps 749 mmHg 95%
15:00 +13°C° 0.8 mm 5 mps 749 mmHg 95%
16:00 +13°C° 0.8 mm 5 mps 749 mmHg 95%
17:00 +13°C° 0.8 mm 5 mps 749 mmHg 96%
18:00 +13°C° 0 mm 5 mps 748 mmHg 96%
19:00 +13°C° 0 mm 5 mps 748 mmHg 96%
20:00 +13°C° 0 mm 5 mps 748 mmHg 96%
21:00 +13°C° 0 mm 5 mps 748 mmHg 96%
22:00 +14°C° 0 mm 4 mps 748 mmHg 96%
23:00 +14°C° 0 mm 4 mps 748 mmHg 97%
Show more